Location: Monroe
(41.9160°N, 83.3980°W)
Time: 20:58:25
(UTC-04:00)

Daily predictions for brighter satellites

Satellite Brightness Start Highest point End
(mag) Time Altitude Azimuth Time Altitude Azimuth Time Altitude Azimuth
OAO 2 Rocket 4.4 20:44:46 10° WSW 20:49:30 35° S 20:54:08 10° SE
Cosmos 1805 Rocket 3.5 20:46:52 10° N 20:51:14 86° E 20:55:33 10° S
Cosmos 1825 4.2 20:50:30 10° NE 20:52:25 13° ENE 20:54:20 10° E
Spot 2 Rocket 4.3 20:50:28 10° SE 20:54:58 33° ENE 20:59:30 10° N
Cosmos 1328 Rocket 4.3 20:52:41 10° SSE 20:56:39 34° E 21:00:40 10° NNE
SL-8 R/B 4.3 20:53:45 10° SSW 20:58:08 37° SE 21:02:32 10° ENE
Cosmos 2154 Rocket 4.0 20:51:58 10° S 20:58:09 67° E 21:04:20 10° NNE
ATLAS CENTAUR R/B 1.6 20:55:00 10° S 20:58:21 36° ESE 21:01:51 10° NE
Meteor 2-15 4.4 20:54:57 10° N 21:01:07 80° E 21:07:13 10° S
Cosmos 2184 Rocket 4.5 20:55:29 10° SSW 21:01:36 66° W 21:07:44 10° N
Timation 1 Rocket 4.4 20:57:12 10° NNW 21:03:12 83° ENE 21:09:11 10° SSE
SL-16 R/B 3.9 21:01:59 10° ESE 21:03:56 12° E 21:05:54 10° ENE
NOSS 2-1 (E) 3.6 21:04:03 10° SW 21:07:40 69° NW 21:11:44 10° NNE
Resurs 01 Rocket 1.9 21:03:21 10° SSE 21:07:40 52° ENE 21:11:59 10° N
Cosmos 1470 Rocket 4.3 21:05:15 10° N 21:09:17 34° ENE 21:13:19 10° SE
SJ-6B 3.6 21:07:30 10° S 21:11:28 56° W 21:15:23 10° NNW
Meteor 2-21 4.5 21:06:06 10° S 21:12:14 87° E 21:18:28 10° N
BREEZE-M DEB (TANK) 4.4 21:02:01 10° W 21:12:26 45° NNW 21:15:43 10° NE
Meteor 2-3 Rocket 3.8 21:07:39 10° N 21:13:12 61° ENE 21:18:46 10° SSE
Cosmos 1939 Rocket 2.7 21:14:18 10° SSE 21:18:09 78° ENE 21:22:05 10° N
Cosmos 2341 Rocket 4.0 21:15:12 10° S 21:21:30 69° E 21:27:48 10° NNE
NOSS 3-3 (A) 4.0 21:15:41 10° SSW 21:21:41 88° SE 21:28:20 10° NE
NOSS 3-3 (C) 4.0 21:15:48 10° SSW 21:21:47 87° SE 21:28:26 10° NE
NOSS 0 Rocket 4.0 21:16:53 10° S 21:22:54 58° ESE 21:28:59 10° NNE
Cosmos 962 Rocket 4.4 21:17:15 10° S 21:23:19 74° E 21:29:29 10° N
Cosmos 2218 Rocket 4.5 21:20:32 10° SSE 21:26:24 41° E 21:32:19 10° NNE
Aureole 2 3.9 21:25:40 10° S 21:28:39 62° ESE 21:31:35 10° NNE
Cosmos 1980 3.8 21:24:06 10° S 21:29:38 57° ESE 21:35:12 10° NNE
USA 267 4.4 21:25:39 10° E 21:29:53 18° ESE 21:34:06 10° SSE
Cosmos 1295 Rocket 4.5 21:24:49 10° S 21:31:09 79° E 21:37:29 10° N
Cosmos 1666 Rocket 4.3 21:27:30 10° NNW 21:31:54 55° W 21:36:14 10° S
ERS-1 Rocket 4.4 21:30:08 16° E 21:32:28 21° ENE 21:36:13 10° NNE
Cosmos 1408 2.9 21:32:36 10° N 21:36:10 47° E 21:38:11 23° SE
Cosmos 220 Rocket 4.0 21:32:47 10° NNW 21:37:08 83° WSW 21:40:44 14° SSE
Cosmos 2366 rocket 4.3 21:32:02 10° SSE 21:37:52 45° E 21:43:47 10° NNE
Cosmos 1933 Rocket 3.6 21:33:38 10° N 21:37:58 58° E 21:41:04 18° SSE
H-2A R/B 3.1 21:36:33 19° ESE 21:38:51 26° ENE 21:42:57 10° N
ERS-2 3.8 21:37:02 10° SSW 21:40:21 32° W 21:43:42 10° NNW
Cosmos 2333 Rocket 2.4 21:34:47 10° SSW 21:40:27 75° WNW 21:46:08 10° NNE
Resurs 1-3 3.9 21:36:40 10° S 21:41:01 66° WSW 21:45:24 10° NNW
Cosmos 1371 Rocket 4.3 21:36:46 10° S 21:41:46 44° ESE 21:46:49 10° NNE
Cosmos 1151 Rocket 2.9 21:37:33 10° S 21:41:47 70° E 21:46:02 10° NNE
Sich 1 4.5 21:37:54 10° NNW 21:41:51 37° W 21:45:47 10° SSW
Cosmos 1455 2.7 21:38:26 10° SSW 21:42:12 61° W 21:46:03 10° N
USA 186 3.4 21:41:12 10° SSW 21:43:02 22° W 21:44:55 10° NW
Meteor 1-27 4.4 21:37:41 10° SSW 21:43:26 78° W 21:49:07 10° N
Cosmos 1844 Rocket 4.0 21:38:20 10° NW 21:43:32 38° WSW 21:48:42 10° S
COSMOS 2428 4.1 21:40:23 10° SW 21:45:47 42° WNW 21:51:13 10° NNE
SL-8 Rocket 4.0 21:40:38 10° S 21:46:53 71° E 21:53:09 10° NNE
Cosmos 1892 4.4 21:46:04 10° NNW 21:49:35 33° W 21:53:05 10° SSW
YAOGAN 6 4.3 21:49:51 10° SSW 21:53:07 32° W 21:56:26 10° NNW
MetOp-A 4.5 21:51:21 25° SE 21:54:11 48° ENE 21:59:19 10° N
Cosmos 2219 Rocket 3.2 21:49:35 10° SW 21:55:03 49° WNW 22:00:33 10° NNE
Cosmos 2237 Rocket 2.1 21:51:21 10° SSW 21:56:58 87° ESE 22:02:38 10° NNE
Cosmos 1869 Rocket 4.4 21:56:24 10° NNE 22:00:18 31° ENE 22:00:54 30° E
Genesis I 4.0 21:59:08 10° NW 22:03:04 48° WSW 22:05:02 25° S
Cosmos 2056 Rocket 3.6 21:57:57 10° S 22:03:12 54° ESE 22:08:29 10° NNE
Cosmos 2278 Rocket 2.3 22:00:41 10° NNW 22:06:22 76° WSW 22:09:51 24° SSE
ATLAS 5 CENTAUR R/B 4.5 22:05:24 10° N 22:08:26 14° NNE 22:11:38 10° ENE
Helios 1A 4.0 22:08:42 28° ENE 22:09:01 29° ENE 22:12:39 10° N
Cosmos 1862 4.0 22:05:55 10° N 22:09:40 35° ENE 22:09:45 35° E
Terra 3.8 22:09:24 14° ENE 22:09:48 14° ENE 22:12:18 10° NNE
Cosmos 2098 Rocket 2.9 22:07:13 20° S 22:10:23 75° E 22:14:14 10° NNE
CZ-3B R/B 4.4 22:11:21 10° NW 22:11:56 20° NW 22:11:56 20° NW
Cosmos 405 Rocket 3.7 22:15:05 32° ENE 22:15:05 32° ENE 22:17:49 10° NNE
Cosmos 405 3.0 22:14:08 10° N 22:17:29 60° ENE 22:17:29 60° ENE
Cosmos 864 Rocket 4.4 22:12:15 10° S 22:18:22 88° ESE 22:24:32 10° N
Cosmos 1624 Rocket 3.8 22:15:01 10° SSW 22:20:11 81° ESE 22:25:24 10° NNE
Cosmos 2228 Rocket 4.3 22:16:27 10° SSW 22:20:35 41° WNW 22:24:47 10° N
Cosmos 1190 Rocket 4.0 22:18:05 10° NNW 22:23:23 71° ENE 22:24:56 46° SE
ATLAS 2A CENTAUR R/B 4.4 22:11:01 10° SW 22:25:11 30° S 22:27:52 27° SSE
Cosmos 1140 Rocket 4.1 22:21:32 10° N 22:26:22 38° ENE 22:27:07 36° E
Lacrosse 5 4.0 22:23:50 10° NNW 22:27:24 19° NNE 22:30:32 11° ENE
Cosmos 1825 3.4 22:24:38 10° NNW 22:28:11 39° W 22:29:46 26° SW
SPOT 5 3.3 22:28:34 39° ENE 22:28:44 40° ENE 22:32:55 10° N
ATLAS 2AS CENTAUR R/B 3.8 22:27:57 10° NW 22:35:09 42° WSW 22:39:43 20° S
Cosmos 1954 Rocket 4.3 22:31:11 10° N 22:36:13 47° ENE 22:36:48 45° E
ATLAS CENTAUR R/B 3.9 22:34:39 10° W 22:37:27 20° NW 22:40:22 10° N
SL-8 R/B 4.1 22:35:46 10° WSW 22:40:31 62° NNW 22:43:31 22° NE
GEOS 3 Rocket 3.5 22:36:11 10° NE 22:41:31 66° ESE 22:43:43 35° SSW
Resurs 01 Rocket 4.3 22:41:55 10° SW 22:44:26 15° W 22:46:58 10° WNW
SL-16 R/B 2.1 22:43:10 20° SSW 22:47:09 90° NW 22:52:52 10° NNE
ARGOS 3.6 22:48:17 34° SSW 22:50:20 55° W 22:55:36 10° NNW
Cosmos 2344 3.5 22:43:38 10° SSW 22:51:05 61° ESE 22:59:08 10° NE
Cosmos 1933 4.3 22:54:28 40° NNE 22:54:28 40° NNE 22:57:12 10° NNE
Cosmos 1000 Rocket 4.4 22:47:01 10° N 22:53:13 67° E 22:54:15 57° SE
Cosmos 1943 Rocket 4.0 22:50:07 10° N 22:53:48 18° NE 22:54:37 17° ENE
SL-19 R/B 4.3 22:53:15 58° E 22:53:53 62° ENE 22:59:23 10° N
Cosmos 1727 Rocket 4.4 22:49:20 10° NNW 22:55:23 58° W 22:58:14 31° SSW
SL-08 RB Rocket 4.1 22:56:34 49° SW 22:57:07 53° W 23:01:30 10° NNW
Cosmos 1821 Rocket 4.0 22:57:37 58° SE 22:58:36 67° E 23:04:52 10° NNE
DMSP B5D2-2 3.9 22:58:48 10° NNE 23:04:06 86° ESE 23:04:25 79° S
NOSS 3-4 (A) 3.9 22:58:52 10° NW 23:05:56 74° WSW 23:07:54 52° S
NOSS 3-4 (C) 3.9 22:58:58 10° NW 23:06:02 75° WSW 23:07:59 52° S
Cosmos 1420 Rocket 4.4 23:08:01 53° NE 23:08:01 53° NE 23:12:16 10° NNE
SPOT 1/Viking Rocket 3.4 23:09:39 84° SSW 23:09:47 86° WSW 23:15:03 10° NNW
ERS-1 Rocket 3.6 23:10:08 44° SW 23:10:55 47° W 23:15:46 10° NNW
Cosmos 614 Rocket 3.9 23:07:51 10° NNW 23:12:58 81° W 23:12:58 81° W
USA 267 3.1 23:07:01 10° NE 23:13:35 74° SE 23:20:06 10° SW
Cosmos 407 Rocket 4.3 23:09:06 10° NW 23:13:53 41° WSW 23:14:31 39° WSW
Cosmos 2123 Rocket 4.1 23:09:33 10° N 23:15:47 58° E 23:15:50 58° E
H-2A R/B 3.0 23:17:10 34° WSW 23:18:07 37° W 23:22:43 10° NNW
Cosmos 2297 4.2 23:13:17 10° NW 23:18:44 50° WSW 23:19:22 47° SW
Cosmos 2369 Rocket 3.0 23:20:15 10° N 23:25:18 40° NE 23:25:18 40° NE
Helios 1B rocket 3.6 23:22:18 10° N 23:25:09 40° NNW 23:25:09 40° NNW
Landsat 7 4.3 23:29:58 57° NW 23:29:58 57° NW 23:33:57 10° NNW
Cosmos 1535 Rocket 4.4 23:29:32 76° SSW 23:30:03 85° W 23:36:29 10° N
Cosmos 1241 Rocket 4.4 23:31:12 10° NNW 23:37:27 85° NE 23:37:27 85° NE
Meteor 1-25 Rocket 4.4 23:33:54 10° N 23:38:56 67° NNE 23:38:56 67° NNE
CZ-2C R/B 4.0 23:36:37 10° NNE 23:39:33 30° NE 23:39:33 30° NE
CZ-4C R/B 2.9 23:44:41 46° NNE 23:44:41 46° NNE 23:48:54 10° NE
Meteor 1-26 Rocket 4.4 23:43:38 67° NNW 23:43:38 67° NNW 23:48:36 10° N
Cosmos 1452 Rocket 4.3 23:45:53 47° WNW 23:46:09 47° WNW 23:51:14 10° N
Terra 2.8 23:48:17 46° NW 23:48:17 46° NW 23:51:43 10° NNW
USA 234 3.8 23:45:38 43° ENE 23:47:03 50° NNE 23:53:18 10° NW
Cosmos 1605 Rocket 4.1 23:49:31 72° NE 23:49:31 72° NE 23:55:17 10° N
